Theta_e
306 299 295 298 301 300 298 295 294 298 302 299 300 300 303 306 307 307 308 310 313 310 314 318 322 325 326 327 329 330 330 329 328 327 325 324 323 323 323 322 322 321 322 321
299 294 300 302 301 299 298 295 294 298 302 299 298 297 301 304 304 305 306 310 312 313 310 315 319 323 325 325 327 329 329 329 329 328 328 327 326 326 326 325 324 323 321 321
294 297 303 300 299 297 297 295 294 295 299 301 297 295 298 303 305 305 306 308 311 314 313 310 314 321 324 324 325 328 329 329 330 330 329 328 327 325 324 325 324 324 323 322
295 299 299 298 297 299 293 299 298 297 295 288 298 286 295 299 301 303 305 306 309 312 316 315 313 316 322 324 326 327 329 330 330 330 329 327 325 323 324 325 326 326 325 323
293 295 294 295 296 300 296 301 299 298 294 293 292 289 291 298 297 300 302 305 308 312 314 315 315 315 320 324 325 327 328 329 330 330 329 328 326 326 326 326 325 326 326 326
295 301 299 298 300 300 301 298 297 297 294 285 290 290 288 293 296 299 302 304 306 309 313 315 317 317 317 321 324 326 326 328 330 330 329 328 327 326 325 325 325 326 327 327
292 294 298 300 296 299 299 294 285 283 283 281 290 289 291 297 299 300 301 302 304 306 309 312 313 315 316 316 320 324 326 326 328 328 329 329 328 327 326 325 326 325 326 326
284 283 294 298 296 293 294 294 285 279 280 282 290 284 290 300 303 303 303 304 305 304 306 307 309 313 315 315 316 320 323 325 326 327 328 329 329 328 328 327 327 327 327 327
284 285 296 297 299 298 294 290 295 287 282 282 285 290 296 299 299 301 302 302 302 304 306 307 309 310 314 314 316 316 321 323 325 326 327 328 329 328 327 328 328 328 328 328
288 282 292 295 297 297 294 297 288 288 280 279 281 283 286 292 296 299 300 301 301 303 305 307 307 307 310 313 313 314 315 320 323 324 326 327 328 328 328 328 327 328 328 328
289 286 286 293 292 290 291 290 291 291 287 281 277 282 293 293 295 297 298 300 300 301 301 303 305 306 307 311 312 312 313 314 316 321 323 324 326 327 328 327 327 328 328 328
291 287 280 285 292 295 294 291 292 285 282 285 283 284 296 296 298 298 298 299 300 300 300 301 303 305 305 307 308 309 309 310 313 315 318 320 323 325 325 326 327 327 327 327
291 283 275 279 286 289 287 289 292 292 288 284 281 283 295 294 295 296 295 297 300 301 301 300 301 302 303 305 307 306 307 308 309 310 312 317 319 321 323 324 325 326 326 326
294 286 281 277 280 286 284 287 289 288 281 283 283 285 290 292 292 294 295 296 297 298 300 300 300 300 302 302 303 304 305 306 307 308 309 312 316 320 321 322 323 324 324 324
290 278 284 284 286 286 284 285 287 286 287 284 285 286 291 293 293 292 293 294 296 296 298 299 299 301 302 302 302 301 301 302 303 306 308 310 313 317 319 319 320 321 320 321
291 279 283 276 285 284 279 284 285 285 285 284 285 284 292 293 294 292 293 294 294 295 297 298 300 300 301 301 301 304 302 300 302 304 307 310 312 313 313 313 312 312 314 311
286 281 277 272 282 281 275 281 284 285 287 286 282 287 291 291 292 291 291 289 291 294 297 298 299 298 300 302 304 304 303 300 299 302 304 307 308 306 307 306 305 305 310 311
284 280 277 268 273 271 281 286 288 286 287 288 288 289 290 290 291 291 291 291 292 294 294 293 296 298 302 303 304 305 303 299 298 299 300 298 298 300 300 298 298 297 298 298
289 283 276 271 268 276 281 282 282 281 281 286 286 287 287 289 289 288 290 290 291 292 294 296 296 297 301 299 300 303 302 297 295 296 296 294 296 298 296 297 297 299 294 293
288 288 277 272 268 265 278 283 286 286 277 286 287 286 286 287 281 283 289 291 292 293 294 294 296 296 297 299 300 300 300 296 296 295 293 294 297 298 298 299 297 291 295 292
279 281 279 273 266 273 282 285 287 271 276 281 284 282 282 282 283 285 287 288 290 290 290 292 292 292 294 295 296 296 297 297 299 295 291 292 294 295 297 295 290 291 290 289
276 273 274 271 266 267 286 284 279 277 278 276 276 276 276 278 280 282 282 283 284 285 287 287 287 288 291 293 293 294 295 298 298 296 292 292 292 292 291 291 290 290 289 288
274 280 276 278 277 284 280 277 276 274 273 272 273 275 276 276 276 277 277 279 280 281 282 283 284 285 287 289 291 291 294 296 296 291 291 290 289 290 290 290 289 289 288 288
280 278 276 278 279 272 274 274 273 271 270 272 273 270 271 271 273 273 275 276 276 277 278 280 282 283 285 287 289 291 293 295 294 292 291 290 288 288 289 290 290 290 289 289
270 273 270 275 274 273 274 271 269 269 271 269 268 269 269 270 270 271 272 273 274 275 277 279 279 280 282 285 286 288 290 292 292 292 292 289 288 288 289 290 290 290 291 291
266 264 267 268 267 265 267 268 269 268 266 266 267 267 268 268 268 269 269 271 272 273 274 275 276 277 280 282 284 286 288 289 290 290 290 289 288 288 289 289 289 291 291 291
Wind_Speed
6 7 16 24 20 9 11 12 13 15 14 15 16 14 12 13 12 16 10 9 13 10 10 11 14 13 12 14 15 15 14 13 10 9 9 8 9 6 5 5 8 9 9 11
6 14 25 11 12 15 16 15 17 8 10 10 11 12 9 15 13 15 12 13 12 9 9 11 14 16 17 16 16 15 15 15 14 11 10 9 9 8 9 7 9 11 10 10
14 12 13 13 11 15 18 19 14 10 6 4 3 12 13 19 16 15 15 13 14 13 10 9 12 17 17 17 17 15 17 18 16 15 9 6 6 5 6 9 10 10 11 11
13 17 9 13 14 13 16 12 11 11 5 5 6 11 11 8 16 18 21 19 17 17 13 10 12 12 16 18 15 17 18 18 16 18 13 15 12 12 11 11 9 10 14 13
14 12 19 9 25 13 12 5 7 11 12 5 15 8 6 12 18 14 11 20 19 19 16 16 10 15 16 16 17 17 18 18 17 17 17 13 14 11 8 9 12 12 11 14
15 3 9 21 7 12 5 3 3 2 5 11 24 14 4 11 13 13 9 10 11 18 17 15 13 9 13 15 17 18 18 19 19 18 20 21 19 15 12 11 10 9 10 10
17 12 3 1 13 11 8 10 5 5 7 8 5 9 20 9 9 10 8 8 8 5 8 11 12 12 11 11 14 14 18 21 21 22 22 22 22 19 19 16 12 13 10 10
14 14 17 13 11 14 14 15 5 5 5 5 11 8 13 15 21 21 16 15 11 8 5 6 5 8 8 7 8 10 13 16 17 20 22 21 22 15 15 17 13 12 12 12
14 12 11 10 9 13 10 14 12 5 2 1 5 6 9 9 9 6 8 7 6 5 7 9 7 6 5 4 9 12 14 15 17 19 17 19 19 21 18 19 15 13 13 11
3 5 6 18 9 10 7 9 7 5 9 10 6 7 9 1 4 7 9 9 7 6 7 6 6 6 7 8 7 9 9 12 14 15 16 17 19 19 19 16 18 18 15 14
2 2 3 12 11 15 9 8 2 1 4 4 2 6 7 4 2 5 7 8 10 9 9 9 8 8 9 7 6 7 8 10 11 13 15 16 16 18 17 17 17 17 15 15
4 0 1 5 7 7 11 14 13 4 5 3 3 8 7 6 6 5 5 8 7 3 6 7 6 6 8 9 7 8 8 8 10 12 12 15 15 16 18 18 19 16 17 15
11 5 3 5 6 4 8 11 13 14 6 6 2 8 5 6 15 14 11 11 9 16 15 7 6 6 7 8 8 9 8 10 8 7 9 11 15 14 17 18 17 16 15 15
14 3 7 12 6 8 9 9 11 11 4 14 13 20 30 22 13 8 7 8 9 11 17 21 21 14 8 9 10 10 10 8 8 8 8 13 13 15 15 15 15 16 16 15
7 6 7 10 8 6 3 3 14 13 18 13 21 16 26 22 8 8 10 10 13 13 16 18 20 17 16 14 9 8 9 8 8 9 10 15 12 12 12 12 12 11 12 14
5 2 3 3 4 4 4 6 9 11 16 9 18 17 25 20 17 10 8 9 9 10 10 11 17 20 18 12 9 13 12 9 7 9 14 13 11 10 11 9 8 8 9 7
10 6 4 3 7 5 6 20 19 18 15 13 12 17 18 23 19 7 13 6 10 13 14 15 17 19 17 15 13 14 13 8 8 11 13 12 11 9 9 8 8 9 11 9
8 6 3 3 4 6 9 4 20 19 18 14 18 21 20 21 16 17 7 9 13 15 13 13 14 13 13 15 13 14 11 10 9 11 11 8 8 10 8 8 9 7 6 8
8 5 3 6 4 8 17 1 9 8 10 15 13 10 11 14 13 13 5 6 5 5 8 12 14 16 16 17 19 16 14 9 9 15 13 8 9 12 10 12 12 11 8 7
3 10 5 2 4 10 4 4 6 6 15 8 13 15 13 11 11 7 15 18 18 18 16 16 19 19 18 16 16 17 17 13 17 11 11 11 12 13 15 15 13 6 8 8
3 3 10 5 4 10 6 8 7 7 8 15 15 14 15 7 7 17 14 13 15 17 19 21 20 20 23 21 18 22 19 22 19 13 10 11 13 16 15 12 8 11 9 9
7 7 4 3 1 10 6 6 7 7 14 16 16 17 19 17 19 20 23 19 16 19 20 20 19 21 22 21 16 22 23 20 16 16 13 13 13 12 10 13 10 11 12 12
4 8 9 13 9 10 13 17 13 15 11 16 15 15 16 19 21 23 25 25 21 17 17 18 20 24 25 21 16 23 27 21 17 11 14 13 11 11 11 14 13 11 12 12
1 9 3 5 5 8 12 9 14 16 15 14 13 16 17 21 20 24 22 24 21 19 19 19 22 25 28 21 19 22 24 19 17 17 16 12 11 10 11 9 10 12 13 12
3 7 6 6 8 12 6 18 22 24 15 17 16 16 18 19 20 22 23 24 22 22 19 18 21 25 30 23 26 24 23 18 20 17 18 11 10 13 12 12 13 14 15 18
6 4 3 2 7 6 11 19 25 22 22 22 24 26 21 20 24 23 24 21 22 23 21 21 23 26 28 24 27 24 21 19 21 19 15 11 9 10 10 11 9 14 11 18
Wind_Direction
180 191 208 208 214 225 247 251 235 232 236 262 227 241 258 264 248 266 258 262 257 221 201 180 189 180 184 192 203 201 189 182 183 195 195 196 196 192 200 195 192 191 194 193
163 216 220 211 217 228 247 255 259 275 282 239 243 254 267 268 257 255 249 245 245 254 213 190 187 182 187 191 201 199 192 187 191 198 197 203 198 199 202 201 208 201 195 195
195 214 199 218 214 228 231 236 249 261 311 305 316 277 265 266 262 262 254 246 256 232 232 207 196 189 187 193 196 197 197 195 194 196 195 194 197 196 194 206 210 208 201 201
224 228 180 204 220 208 235 230 252 261 304 258 162 273 258 258 256 241 246 241 242 248 242 230 200 193 196 201 194 200 204 203 198 194 195 200 203 202 208 212 212 204 202 206
208 196 209 233 216 192 241 214 247 250 253 285 267 278 276 210 257 269 260 233 233 233 239 238 216 198 201 194 198 203 204 205 203 196 200 201 210 213 201 213 206 209 202 204
217 187 189 212 205 209 141 220 129 327 259 232 239 217 239 229 249 255 271 250 228 226 230 227 239 220 204 207 206 199 199 205 202 201 203 206 207 203 207 207 205 204 202 199
206 189 133 30 199 209 208 169 231 206 223 234 202 210 243 264 267 281 289 295 302 327 239 227 225 233 226 203 213 211 202 206 203 203 204 207 212 206 211 208 205 202 201 205
187 205 193 182 208 193 198 196 200 215 210 263 156 220 244 222 235 252 260 276 279 296 311 312 294 254 214 200 201 210 218 225 218 210 211 209 208 212 213 213 207 212 207 205
191 231 174 192 185 192 180 216 221 274 134 217 222 239 297 270 265 257 254 275 317 314 292 271 271 280 240 210 223 199 209 214 215 219 218 217 212 210 211 212 212 212 211 203
141 219 230 190 170 236 216 140 185 190 221 230 237 240 246 58 249 294 270 258 295 294 296 291 289 301 290 250 240 214 212 217 223 228 221 222 219 219 219 212 213 211 211 204
258 64 156 141 191 189 194 198 169 182 219 233 231 233 221 229 28 19 25 21 17 18 15 351 343 325 290 271 242 236 226 221 225 223 227 223 222 222 219 219 218 214 208 200
173 229 166 220 187 202 212 221 205 205 207 233 317 261 296 331 80 65 346 339 324 357 334 332 310 303 309 302 281 258 254 240 232 234 236 229 222 220 220 219 218 212 208 203
169 211 96 6 6 252 214 225 229 224 265 215 227 264 224 284 303 306 323 327 347 338 332 315 321 294 276 268 263 265 254 251 248 236 239 246 232 221 223 224 218 213 207 201
157 174 192 196 179 151 190 208 226 230 232 247 234 266 277 272 276 298 315 358 344 331 322 312 309 310 262 250 246 244 243 232 234 231 232 243 241 233 225 223 218 211 207 199
164 200 200 242 277 53 22 237 215 210 229 219 244 240 263 270 294 296 315 311 297 287 287 289 292 298 295 293 275 263 252 240 227 224 228 237 237 232 227 223 221 216 202 198
196 230 198 300 269 315 187 240 265 240 238 247 250 259 259 285 291 294 277 261 267 271 267 280 293 297 299 298 286 288 269 248 221 234 231 234 227 222 226 217 199 202 203 181
175 140 117 240 179 177 284 229 221 230 234 227 235 248 272 272 275 309 264 320 292 282 278 282 286 296 299 300 299 299 281 267 230 230 236 232 219 217 212 201 188 190 192 179
172 117 93 181 57 222 236 261 218 224 238 241 252 253 260 279 288 260 312 284 281 277 290 296 299 309 309 303 307 296 281 264 249 246 244 228 216 221 204 189 182 166 159 176
181 132 135 144 194 299 289 154 184 181 242 226 248 271 260 263 281 298 265 274 296 314 328 323 316 313 314 317 311 299 289 260 254 248 246 227 214 219 192 197 190 188 161 168
193 172 121 97 171 219 133 97 106 132 262 162 212 241 250 268 275 289 7 347 347 347 345 344 338 329 323 330 330 318 306 285 263 270 246 227 220 217 209 204 194 169 183 176
124 136 189 181 226 280 237 170 104 112 281 27 27 29 9 359 348 312 319 340 343 336 329 332 327 311 304 307 307 297 295 279 292 269 242 231 219 217 212 198 178 164 159 152
150 142 165 83 183 279 249 119 168 353 35 31 4 0 340 330 326 327 323 329 333 322 325 325 315 305 302 303 303 292 282 286 277 270 245 240 227 218 199 187 173 164 159 163
187 176 173 183 204 102 48 76 59 33 16 1 343 341 339 328 326 322 315 312 314 314 309 310 303 298 293 293 294 289 284 294 287 259 248 233 221 209 195 182 179 167 171 171
51 9 184 99 358 17 76 58 31 12 351 337 8 350 334 314 316 308 305 305 307 309 307 303 296 294 292 297 291 283 290 296 285 276 262 245 214 201 193 190 183 179 180 179
340 337 352 283 8 6 65 12 352 341 351 351 335 325 320 312 305 301 298 300 302 302 304 300 297 291 287 300 291 289 291 296 286 274 267 233 213 200 201 200 190 196 197 186
6 28 19 308 351 335 297 336 331 344 341 338 333 329 325 316 306 305 295 298 299 300 303 297 292 289 289 294 291 293 295 293 282 276 264 237 213 199 202 204 200 219 220 199